Theta_e
298 299 299 299 300 302 307 310 314 314 314 313 310 306 303 302 302 302 303 303 304 304 306 306 307 307 307 314 319 318 319 320 321 323 325 328 328 328 327 323 317 314 312 305
296 297 298 299 301 299 301 304 307 313 311 307 304 302 302 301 300 300 299 300 302 303 304 305 306 306 307 307 312 314 315 317 318 319 321 324 326 325 323 322 323 315 312 305
296 297 296 298 298 301 300 301 304 308 309 304 302 302 301 300 299 299 298 298 298 300 302 304 305 306 309 309 309 311 313 314 315 317 318 320 322 322 322 320 315 307 305 303
295 295 298 299 299 299 298 301 301 302 302 303 301 299 298 298 298 298 297 298 297 298 299 301 303 305 309 309 308 310 312 313 313 314 315 317 316 318 318 315 312 308 306 303
296 296 296 296 297 299 300 301 301 301 300 300 299 299 297 296 296 296 296 296 296 296 296 298 300 304 306 309 310 310 310 311 310 312 313 313 314 315 314 310 310 307 306 303
296 296 296 298 297 296 297 297 301 301 301 299 299 302 302 296 295 295 295 295 295 295 295 296 297 301 304 305 306 305 307 309 309 307 310 312 312 313 314 313 311 308 305 304
296 296 296 296 296 296 298 299 298 299 299 298 299 298 296 295 295 294 294 294 294 295 295 295 295 296 301 302 303 303 304 307 308 308 306 309 310 311 312 310 309 307 306 305
295 296 296 295 295 296 298 296 296 296 297 296 297 296 295 295 295 295 295 294 294 294 294 294 294 294 295 299 300 301 303 305 307 307 307 306 308 308 310 309 309 307 305 304
295 295 296 294 295 295 294 294 294 294 294 293 292 292 293 293 293 293 293 294 294 293 293 294 294 294 294 294 296 299 302 304 306 307 307 306 305 307 306 306 306 306 306 305
293 294 294 294 293 294 294 293 292 292 292 292 292 291 292 292 292 292 292 292 293 293 293 293 294 294 293 294 294 296 301 302 305 306 306 305 305 303 305 304 305 306 307 304
292 293 293 292 292 292 292 292 292 292 291 291 291 291 291 291 291 291 291 291 291 292 292 293 293 293 293 293 294 294 296 300 302 303 304 304 304 303 303 304 305 305 308 307
293 292 292 292 291 292 291 291 290 290 291 291 291 291 291 291 291 291 291 291 291 292 292 292 292 292 293 293 293 294 294 296 299 300 301 303 302 302 303 303 303 304 304 305
291 291 291 291 291 290 290 290 290 290 290 291 291 291 291 291 291 291 290 291 291 291 292 292 292 292 292 292 292 294 294 294 294 294 297 299 301 301 302 303 302 303 303 302
289 289 290 290 290 289 289 289 289 289 290 290 290 290 290 291 291 291 290 291 291 291 292 291 291 292 292 292 292 293 294 293 293 294 295 296 298 300 300 301 303 302 301 300
288 288 288 289 289 289 289 289 289 290 290 290 290 290 290 291 291 291 290 290 291 291 291 291 291 291 291 292 292 292 293 294 294 294 294 295 296 297 299 300 300 301 301 300
287 287 288 288 288 288 289 289 290 290 290 291 291 291 290 290 290 290 290 290 290 290 291 291 291 291 291 291 291 292 293 293 293 293 293 294 295 295 298 299 299 299 300 300
288 288 288 288 288 289 289 289 290 290 290 291 291 290 290 290 290 290 290 290 290 290 291 291 291 291 291 291 291 291 292 293 293 293 293 294 294 295 293 298 299 299 299 299
288 288 288 288 288 288 289 289 289 289 290 290 290 290 290 290 290 290 290 290 290 290 290 290 290 290 290 290 290 291 291 292 292 293 293 294 294 294 293 292 297 298 298 298
287 287 287 288 288 288 288 289 289 289 289 289 289 290 290 290 290 290 290 290 290 291 290 290 289 289 289 289 289 290 290 291 291 292 292 293 293 293 293 291 294 297 297 297
287 286 286 286 286 287 288 288 288 288 289 290 289 289 289 288 288 288 287 288 288 289 289 289 289 289 289 290 290 290 289 290 290 291 292 292 292 292 291 290 292 296 296 296
286 286 286 285 285 285 285 285 286 286 287 288 289 289 289 287 286 285 286 287 286 287 288 288 288 288 288 288 289 289 290 290 290 291 292 292 291 290 290 290 291 293 296 296
285 286 286 285 285 285 285 285 285 285 286 286 286 286 285 285 285 286 286 286 286 287 287 288 288 288 288 289 289 289 290 290 290 291 291 291 291 291 290 290 291 292 295 296
286 285 285 285 285 285 285 285 285 285 285 285 285 285 285 286 286 287 288 288 288 288 288 288 288 288 288 288 288 289 289 289 290 290 290 291 291 291 291 291 291 291 292 294
285 286 286 285 285 285 285 285 285 285 285 285 286 286 286 287 287 287 287 287 287 287 287 288 288 288 288 288 289 289 289 289 289 290 290 290 290 291 291 291 291 291 291 293
285 286 286 285 285 285 285 285 285 285 285 286 286 286 287 287 287 287 287 288 288 288 288 288 288 288 288 288 288 289 289 289 289 289 289 290 290 290 291 291 291 291 291 294
283 283 285 286 286 285 285 286 286 286 286 286 286 287 287 287 287 288 288 288 288 288 288 288 288 288 288 288 288 289 289 289 290 289 289 289 290 290 290 291 291 291 292 294
283 283 283 284 284 285 286 286 286 286 286 287 287 287 287 288 287 287 287 287 287 287 288 288 288 289 289 289 289 290 290 290 290 289 289 289 289 290 290 290 292 292 294 294
Wind_Speed
8 12 11 10 10 7 3 4 8 11 16 16 10 9 10 11 12 14 16 18 19 19 18 17 15 13 8 4 1 3 6 11 14 17 23 27 29 29 28 30 26 23 24 23
8 3 8 14 14 9 7 6 4 6 13 8 9 11 10 11 12 14 16 16 16 17 18 19 19 17 13 6 2 5 7 8 11 15 23 27 31 32 29 30 29 30 30 27
5 5 9 11 10 11 8 5 6 9 5 12 9 9 10 10 11 12 13 15 17 17 17 18 20 21 19 12 5 5 6 7 10 13 18 25 29 33 34 33 32 31 26 26
6 8 7 4 2 5 7 3 3 3 6 6 10 10 10 9 9 10 11 12 13 15 16 18 19 21 20 15 4 2 2 6 11 11 14 21 28 32 35 33 32 31 28 26
4 6 12 10 3 2 5 9 5 6 6 6 8 8 8 7 8 9 9 10 11 13 14 16 19 20 19 16 10 5 3 2 7 9 11 17 23 31 33 34 33 31 28 27
6 6 5 5 2 2 2 9 10 7 6 5 6 8 5 5 3 5 7 9 10 11 12 14 15 15 16 14 13 11 7 4 5 9 10 11 18 27 31 32 30 30 30 26
11 10 7 4 3 1 6 2 6 5 5 5 5 3 7 2 1 3 5 7 9 9 9 11 13 13 12 13 15 15 13 9 6 7 10 10 14 23 29 31 32 32 30 27
11 15 15 6 4 9 8 8 6 3 3 1 3 5 5 5 7 8 9 9 9 10 9 9 11 12 12 12 13 14 14 11 9 8 9 11 13 20 25 30 32 32 31 30
8 8 3 2 10 3 5 3 1 4 7 8 10 11 12 12 11 11 12 13 12 12 12 10 10 11 11 12 12 13 14 13 10 9 10 11 14 17 24 30 35 34 33 32
16 19 22 13 12 14 15 10 11 13 15 17 16 15 14 13 13 14 15 16 16 16 15 14 12 12 12 12 12 12 12 14 10 10 11 13 14 16 20 29 36 37 37 35
22 27 28 24 23 27 27 26 25 26 25 23 21 21 18 17 17 16 17 17 18 18 19 18 17 15 14 13 12 12 11 12 12 11 14 15 17 19 21 23 29 39 37 36
18 24 23 27 25 22 24 25 31 31 27 23 25 26 27 26 23 21 19 18 18 19 20 20 20 19 18 16 16 14 13 11 11 12 12 18 21 22 22 25 26 29 34 38
31 36 36 33 28 31 32 34 34 34 33 30 29 28 27 25 24 24 22 21 21 22 22 21 22 22 21 19 17 17 15 14 13 14 13 13 17 22 27 27 28 29 31 33
23 23 30 32 34 35 34 34 34 35 36 34 32 29 28 29 27 25 24 23 23 23 22 23 23 23 21 19 18 19 19 19 18 16 17 17 18 21 24 30 32 32 30 33
30 32 36 36 36 36 33 34 33 34 33 33 31 32 32 30 27 26 26 25 25 25 26 25 25 24 22 21 20 22 22 21 20 19 19 20 20 24 26 31 32 33 31 27
24 30 34 37 34 31 30 25 27 31 31 29 30 28 28 28 27 27 26 25 25 27 26 26 26 25 23 23 24 25 25 25 26 24 22 21 21 23 25 31 35 36 35 32
23 24 27 30 32 31 31 28 26 26 26 26 26 27 26 26 26 25 25 26 27 28 27 26 27 25 25 26 26 27 26 26 26 25 24 23 22 23 27 30 37 37 37 36
13 19 25 27 26 28 27 27 25 24 25 25 25 25 25 25 26 26 27 27 28 29 29 28 28 27 28 28 28 29 29 30 30 29 27 26 25 23 26 29 35 38 37 37
12 13 13 15 18 22 23 25 26 25 24 24 24 24 26 26 26 27 26 27 30 30 33 31 32 33 32 31 32 34 33 33 33 32 32 31 29 28 27 31 31 37 36 41
19 22 19 15 14 14 15 16 17 18 19 20 21 25 28 28 29 31 32 32 33 36 34 35 34 33 32 31 33 36 38 38 37 35 34 34 32 34 36 33 32 34 37 41
29 25 21 19 20 17 16 18 19 20 22 21 23 27 31 34 36 38 37 36 45 39 35 36 36 39 39 41 39 38 38 39 38 38 37 37 38 41 42 37 35 33 37 37
28 29 28 27 26 26 26 23 22 22 24 26 28 32 36 38 37 40 43 44 45 42 41 40 41 40 39 38 35 36 37 37 38 39 37 38 39 40 43 40 38 36 36 38
33 32 33 35 34 34 32 29 29 28 30 32 35 36 36 37 36 36 39 38 38 40 37 39 40 39 37 36 37 38 39 38 39 40 39 40 41 40 42 40 39 39 37 36
33 31 33 33 33 33 34 36 34 34 34 34 35 37 36 38 40 40 42 44 44 43 43 43 41 39 36 38 39 38 37 38 38 40 41 41 40 39 38 39 38 41 38 36
29 28 29 30 32 34 34 35 37 38 37 38 38 38 39 40 42 44 39 38 38 38 39 40 39 39 39 42 40 40 39 39 40 39 39 39 39 40 40 40 40 40 36 35
29 30 29 29 30 31 32 33 35 35 35 37 38 38 38 38 38 39 39 41 40 41 42 41 39 37 37 38 38 39 37 36 36 39 40 39 40 39 39 38 38 36 33 34
28 28 29 30 32 32 33 34 35 36 35 36 40 38 36 36 38 40 42 42 40 39 39 38 36 37 36 37 38 38 36 33 34 35 38 39 39 38 37 34 37 32 30 32
Wind_Direction
282 291 307 309 303 321 309 320 250 186 162 153 127 112 92 82 70 60 50 44 39 36 35 32 30 25 20 13 259 204 248 246 249 242 234 226 223 226 225 225 215 214 222 219
295 233 281 288 286 281 277 272 260 172 121 117 127 114 99 84 73 62 51 43 38 34 30 25 18 12 4 345 278 249 206 227 245 244 239 228 223 219 216 209 208 216 218 218
264 324 305 272 252 254 259 272 285 213 146 150 134 116 105 95 77 65 53 42 32 27 23 21 14 7 359 341 277 223 236 242 232 241 242 236 228 220 215 212 209 213 215 216
294 319 249 65 40 263 257 236 208 122 127 141 128 120 105 88 84 68 55 45 35 27 19 15 13 11 13 12 28 185 218 257 267 242 244 242 232 219 216 212 211 213 214 214
260 261 303 292 152 209 200 209 209 161 141 134 156 154 119 94 77 66 51 40 32 25 20 16 14 10 18 29 38 30 4 272 260 267 251 243 236 223 215 211 212 213 218 218
216 247 247 42 83 54 207 257 171 207 173 174 182 205 157 132 76 57 47 32 18 15 15 16 15 16 11 12 14 10 358 319 278 260 263 258 240 223 218 214 218 217 216 219
235 243 262 276 150 188 232 90 142 188 188 202 226 9 84 119 286 337 355 359 5 359 2 6 6 10 12 7 8 0 352 326 287 257 256 261 247 229 221 217 219 219 221 224
240 249 252 172 174 237 83 120 127 129 143 226 255 246 261 274 283 293 305 318 331 338 336 343 355 357 358 353 355 352 345 330 299 267 244 259 252 242 231 225 223 223 223 222
252 253 212 135 253 170 159 123 174 277 269 273 283 277 274 274 280 287 292 298 306 313 317 318 327 340 340 340 339 343 343 330 295 270 248 235 253 246 241 227 223 222 224 225
267 251 251 236 252 246 236 262 275 282 285 275 266 267 271 270 276 283 287 289 292 295 299 300 299 310 320 319 325 326 328 335 309 267 251 234 231 245 242 236 229 226 228 224
264 253 256 254 259 269 260 273 274 278 278 270 261 259 263 268 275 279 282 282 282 280 283 287 288 285 293 304 302 307 311 310 322 273 248 243 242 245 254 253 242 236 240 238
258 256 261 267 262 255 265 270 280 283 276 263 258 259 259 263 269 275 275 277 274 270 272 274 278 279 278 285 286 284 291 297 296 297 289 267 263 265 266 261 256 252 250 250
261 257 260 265 267 269 273 269 269 270 266 261 262 264 260 255 267 269 270 273 271 269 268 268 273 272 275 279 274 268 273 275 282 297 289 274 274 271 266 264 262 258 253 250
264 272 268 258 262 264 266 266 266 260 255 256 262 262 259 261 266 261 265 269 271 268 264 269 270 270 272 271 270 264 267 269 274 283 286 282 272 270 278 263 258 254 257 246
264 262 261 262 264 264 268 269 261 259 256 257 256 257 256 256 256 259 264 266 265 264 265 266 266 268 268 270 270 266 263 263 265 274 282 278 278 274 272 266 261 259 256 248
273 261 257 257 261 262 262 271 261 256 254 259 250 248 249 253 257 262 263 257 256 259 262 262 264 266 266 264 266 264 263 261 264 270 277 274 271 283 276 265 257 257 257 253
282 273 269 265 257 254 261 259 262 260 258 257 254 252 251 253 258 259 256 253 256 257 258 258 260 260 260 260 261 261 259 260 265 267 269 268 270 272 280 269 262 259 259 255
301 286 279 273 271 266 262 256 259 259 257 256 256 255 255 255 255 257 258 258 258 258 257 258 259 259 261 262 262 261 258 260 262 263 263 263 264 269 271 271 265 263 262 250
306 310 312 299 273 264 263 261 257 258 257 253 252 248 243 247 251 255 258 259 258 258 258 259 261 262 262 262 261 258 256 257 259 259 257 258 262 263 264 268 265 261 257 249
299 297 293 286 292 287 273 268 267 264 260 255 253 254 255 259 262 266 268 266 263 262 264 265 266 264 262 262 263 261 257 255 256 257 254 253 255 260 265 268 265 262 256 252
290 279 270 277 278 277 279 280 277 275 271 264 261 261 265 271 275 277 275 267 272 270 269 267 264 263 263 261 261 257 253 253 254 254 251 249 257 261 262 267 262 258 257 255
278 274 266 270 278 279 274 275 280 277 275 271 266 265 268 272 273 274 272 268 274 272 267 263 263 264 260 258 258 255 251 250 251 252 248 248 253 256 261 263 258 256 256 257
281 273 271 270 267 272 277 275 272 272 272 271 272 271 268 267 268 267 266 267 265 266 267 266 264 264 263 258 255 254 255 253 249 248 248 247 250 253 257 258 255 254 255 257
280 273 268 267 266 267 266 268 271 270 270 270 268 265 266 266 266 264 264 267 267 265 263 262 261 261 260 259 262 259 254 252 249 247 247 250 251 251 251 254 252 253 257 260
283 278 269 265 264 264 264 265 267 268 270 270 269 267 266 264 262 268 266 265 266 266 264 264 263 263 261 259 258 254 253 253 250 247 246 246 247 249 250 251 251 252 255 258
282 278 276 270 267 267 266 266 266 267 269 269 268 268 268 267 266 266 266 267 267 265 264 264 263 261 258 257 255 251 251 250 249 249 247 246 246 246 247 250 249 250 253 254
283 278 275 272 268 267 267 266 265 267 268 269 271 272 272 271 269 269 268 269 267 265 265 264 261 259 256 256 256 252 251 249 249 250 248 246 246 244 247 247 248 251 253 251